This is the latest recevied weather packets stored in our database for station/object W8AN. If no packets are shown the sender has not sent any weather packets the latest 10 day(s).
| Time | Temp. | Humidity | Pressure | Rain* | Wind** | Luminosity | Snow |
|---|---|---|---|---|---|---|---|
| 1778114317 | 10.56° C | 59% | 4267.9 hPa | 0 mm | - | 0 W/m² | - |
| 1778114012 | 10° C | 61% | 4268 hPa | 0 mm | - | 1 W/m² | - |
| 1778113707 | 10° C | 61% | 4267.8 hPa | 0 mm | - | 4 W/m² | - |
| 1778113403 | 10.56° C | 59% | 4267.6 hPa | 0 mm | - | 6 W/m² | - |
| 1778113101 | 10.56° C | 58% | 4267.4 hPa | 0 mm | - | 7 W/m² | - |
| 1778112798 | 10.56° C | 57% | 4267.7 hPa | 0 mm | - | 9 W/m² | - |
| 1778112494 | 10.56° C | 59% | 4267.6 hPa | 0 mm | - | 14 W/m² | - |
| 1778112190 | 10.56° C | 56% | 4267.6 hPa | 0 mm | - | 19 W/m² | - |
| 1778111887 | 10.56° C | 55% | 4267.6 hPa | 0 mm | - | 22 W/m² | - |
| 1778111583 | 11.11° C | 54% | 4267.7 hPa | 0 mm | - | 29 W/m² | - |
| 1778111280 | 11.11° C | 54% | 4267.6 hPa | 0 mm | - | 35 W/m² | - |
| 1778110977 | 11.11° C | 55% | 4267.7 hPa | 0 mm | - | 41 W/m² | - |
| 1778110675 | 11.11° C | 52% | 4267.6 hPa | 0 mm | - | 44 W/m² | - |
| 1778110371 | 11.67° C | 50% | 4267.8 hPa | 0 mm | - | 44 W/m² | - |
| 1778110067 | 11.67° C | 50% | 4267.7 hPa | 0 mm | - | 47 W/m² | - |
| 1778109762 | 11.67° C | 51% | 4267.8 hPa | 0 mm | - | 56 W/m² | - |
| 1778109460 | 11.67° C | 49% | 4267.8 hPa | 0 mm | - | 57 W/m² | - |
| 1778109158 | 12.22° C | 48% | 4267.6 hPa | 0 mm | - | 75 W/m² | - |
| 1778108854 | 12.22° C | 47% | 4267.4 hPa | 0 mm | - | 89 W/m² | - |
| 1778108551 | 12.22° C | 48% | 4267.5 hPa | 0 mm | - | 104 W/m² | - |
| 1778108248 | 12.22° C | 48% | 4267.5 hPa | 0 mm | - | 108 W/m² | - |
| 1778107945 | 12.22° C | 47% | 4267.6 hPa | 0 mm | - | 94 W/m² | - |
| 1778107641 | 12.22° C | 48% | 4267.6 hPa | 0 mm | - | 85 W/m² | - |
| 1778107338 | 12.22° C | 47% | 4267.7 hPa | 0 mm | - | 91 W/m² | - |
| 1778107035 | 12.22° C | 45% | 4267.5 hPa | 0 mm | - | 97 W/m² | - |
* Rain latest hour (hover to see other rain measurements)
** Current wind speed in m/s (hover to see current wind gust speed)